[Iaude] MPEC N93: 2024 NX1 [a=1.78,e=0.34,i=1.1,H=24.4]
    mpec at cfa.harvard.edu 
    mpec at cfa.harvard.edu
       
    Mon Jul  8 06:28:10 EDT 2024
    
    
  
M.P.E.C. 2024-N93                                  Issued 2024 July 8, 10:26 UT
     The Minor Planet Electronic Circulars contain information on unusual
         minor planets, routine data on comets and natural satellites,
         and occasional editorial announcements.  They are published
    on behalf of Division F of the International Astronomical Union by the
          Minor Planet Center, Smithsonian Astrophysical Observatory,
                          Cambridge, MA 02138, U.S.A.
			  
             Prepared using the Tamkin Foundation Computer Network
                              MPC at CFA.HARVARD.EDU
            URL https://www.minorplanetcenter.net/    ISSN 1523-6714
                                    2024 NX1                                    
Observations:
     K24N01X* C2024 07 06.46695020 02 42.223-26 49 50.72         21.30wXEN093F52
     K24N01X  C2024 07 06.47678120 02 43.310-26 49 44.18         21.53wXEN093F52
     K24N01X  C2024 07 06.49645720 02 45.499-26 49 30.06         21.70wXEN093F52
     K24N01X  C2024 07 06.55097120 02 51.600-26 48 49.99         21.60GVEN093F51
     K24N01X  C2024 07 06.55162020 02 51.684-26 48 49.17         21.93GVEN093F51
     K24N01X $C2024 07 07.00867820 03 56.615-26 43 32.72               VEN093J04
     K24N01X $C2024 07 07.02957820 03 58.920-26 43 18.51               VEN093J04
     K24N01X |C2024 07 07.24367920 04 26.140-26 40 00.60         20.9 GVEN093807
     K24N01X |C2024 07 07.24673020 04 26.460-26 39 58.70         20.9 GVEN093807
     K24N01X |C2024 07 07.24740020 04 26.550-26 39 58.30         20.9 GVEN093807
     K24N01X |C2024 07 07.24887020 04 26.690-26 39 57.20         21.1 GVEN093807
     K24N01X KC2024 07 08.34273 20 06 50.93 -26 27 42.8          21.2 RVEN093691
     K24N01X KC2024 07 08.35349 20 06 52.17 -26 27 34.8                VEN093691
Observer details:
691 Steward Observatory, Kitt Peak-Spacewatch.  Observer T. H. Bressi.  0.9-m
    f/3 reflector + CCD.
807 Cerro Tololo Observatory, La Serena.  Observers T. Linder, R. Holmes.
    0.61-m f/6.8 Ritchey-Chretien + CCD.
F51 Pan-STARRS 1, Haleakala.  Observers J. Herman, T. Lowe, P. Minguez, A.
    Schultz, I. Smith.  Measurers K. Chambers, T. de Boer, J. Fairlamb, H.
    Gao, M. Huber, C.-C. Lin, E. Magnier, Y. Ramanjooloo, R. Wainscoat, R.
    Weryk.  1.8-m Ritchey-Chretien + CCD.
F52 Pan-STARRS 2, Haleakala.  Observers J. Herman, T. Lowe, P. Minguez, A.
    Schultz, I. Smith.  Measurers K. Chambers, T. de Boer, J. Fairlamb, H.
    Gao, M. Huber, C.-C. Lin, E. Magnier, Y. Ramanjooloo, R. Wainscoat, R.
    Weryk.  1.8-m Ritchey-Chretien + CCD.
J04 ESA Optical Ground Station, Tenerife.  Observers P. Ruiz, M. Micheli, F.
    Ocana, L. Conversi.  Measurers F. Ocana, M. Micheli, R. Kresken.
    1.0-m f/4.4 reflector + CCD.
Orbital elements:
2024 NX1                                                 Earth MOID = 0.1565 AU
Epoch 2024 Mar. 31.0 TT = JDT 2460400.5                 MPC                     
M 321.13206              (2000.0)            P               Q                  
n   0.41510687     Peri.  308.04624     +0.22162845     +0.97509477             
a   1.7797654      Node   334.75460     -0.88836160     +0.19833602             
e   0.3413616      Incl.    1.13223     -0.40211255     +0.09926236             
P   2.37           H   24.44          G   0.15           U   8                  
Residuals in seconds of arc
240706 F52  0.1+  0.1+    240707 J04  0.3+  0.3-    240707 807  0.1-  0.1-
240706 F52  0.0   0.2-    240707 J04  0.5-  0.4+    240708 691  0.5-  0.1-
240706 F52  0.0   0.1+    240707 807  0.2+  0.2+    240708 691  0.5+  0.1+
240706 F51  0.1-  0.2-    240707 807  0.0   0.1-
240706 F51  0.0   0.1+    240707 807  0.2+  0.2-
Ephemeris:
2024 NX1                 a,e,i = 1.78, 0.34, 1                   q = 1.1722
Date    TT    R. A. (2000) Decl.     Delta      r    Elong.  Phase     V
2024 06 08    18 46 14.0 -29 48 10   0.1928  1.1941   156.4    19.9    22.2
...
2024 06 23    19 28 32.5 -28 56 09   0.1671  1.1756   161.0    16.3    21.8
...
2024 07 01    19 49 41.0 -27 48 30   0.1612  1.1723   163.7    14.1    21.6
...
2024 07 07    20 03 53.6 -26 42 57   0.1602  1.1729   166.1    12.0    21.5
2024 07 08    20 06 06.0 -26 31 04   0.1604  1.1732   166.5    11.7    21.5
2024 07 09    20 08 15.5 -26 18 58   0.1606  1.1737   166.9    11.3    21.5
...
2024 07 15    20 20 11.5 -25 02 40   0.1636  1.1778   169.7     8.9    21.5
...
2024 07 23    20 33 25.9 -23 16 30   0.1722  1.1872   173.7     5.4    21.4
...
2024 08 07    20 51 17.5 -20 09 56   0.2030  1.2164   174.5     4.6    21.8
A. U. Tomatic                (C) Copyright 2024 MPC           M.P.E.C. 2024-N93
    
    
More information about the Iaude
mailing list